Powrót do katalogu

QIANFAN-147

AktywnyŁącznośćPO
NORAD 69106·PAYLOAD·🇨🇳 China

Wystrzelony May 17, 2026 z Wenchang Space Launch Site

Loading…

Następne Przeloty (najbliższe 24 godziny)

TLE

ŚwieżeSource: Space-Track

Epoka: Sep 14, 2026, 12:54 UTC

1 69106U 26108C   26257.53764539  .00000101  00000-0  13747-3 0  9990
2 69106  89.0191  13.1296 0002077 103.4897 256.6486 13.51023984 16495

Śledź QIANFAN-147 w czasie rzeczywistym z AllMySat

Download on the App Store